Location: Culleoka
(33.1312°N, 96.4919°W)
Time: 13:40:32
(UTC+00:00)

Cosmos 1500 Rocket - Pass Details

Date: 04 July 2022
Orbit: 602 x 631 km, 82.5° (Epoch: 07 August)

Event Time Altitude Azimuth Distance (km) Brightness Sun altitude
Exits shadow 09:47:59 32° 237° (WSW) 1,080 4.2 -16.9°
Maximum altitude 09:49:22 41° 279° (W) 904 4.1 -16.6°
Drops below altitude 10° 09:53:36 10° 351° (N) 2,012 6.6 -16.0°
Sets 09:55:58 0° 358° (N) 2,925 7.6 -15.6°
